Flight Information

DEPARTURE
CAMARILLO, CA
Elevation:
76
Runways:
8/26 - 6013x150 - ASPH-CONC-G
Active PE Departure:
26
Current PE ATIS:
S
Altimeter:
29.76
Remarks:
ATIS:
126.025 805-484-3351
Clearance Delivery:
121.8
Ground:
121.8
Tower:
128.2
DESTINATION
,
Elevation:
TPA:
1000 (est.)


6822.3 NM73° True-14° Var58° HDG

Flight Plan:
(click to file on line)

1. Type
2. Aircraft Identification
3. Aircraft Type / Special Equipment
4. True Airspeed
kts
5. Departure Airport
(ICAO code)
6. Arriving Airport
(ICAO code)
7. Cruising Altitude
ft
8. Alternate Airport
(ICAO code)
9. Route of Flight
10. Remarks


00:00:00 Departure ATIS: Destination ATIS:

Clearance Limit:
Route:
Altitude: Expect in minutes
Frequency:
Transponder: (7500 Hijack / 7600 Lost Comms / 7700 Emergency)


KCMA 251955Z 26019G28KT 10SM CLR 13/01 A2976 RMK AO2 PK WND 26031/1908 SLP088 T01330011 PNO $
Time: 2021-01-25T19:55:00Z
1611605418
Winds: 260 @ 19 kts
Gusting:28 kts
Visibility: 10.0 sm
Clouds (AGL): CLR
Temperature: 13.3 C
Dew Point: 1.1 C
Pressure: 29.760826 in Hgbr


Notes:

Data extracted from FAA Digital Chart Supplement. Effective: 0901Z Thursday, Dec 31, 2020 to 0901Z Thursday, Jan 28, 2021
Current ATIS data is provided courtisy of PilotEdge.